Regional Weather Roundup
Issued by NWS Cleveland, OH

Home | Current Version | Previous Version | Graphics & Text | Print | Product List | Glossary On
Versions: 1 2 3 4 5 6 7 8 9 10 11 12 13 14 15 16 17 18 19 20 21 22 23 24 25 26 27 28 29 30 31 32 33 34 35 36 37 38 39 40 41 42 43 44 45 46 47 48 49 50
000
ASUS41 KCLE 262200
RWRCLE
OHIO REGIONAL WEATHER ROUNDUP
NATIONAL WEATHER SERVICE WILMINGTON, OH
600 PM EDT TUE MAY 26 2015

NOTE: "FAIR" INDICATES FEW OR NO CLOUDS BELOW 12,000 FEET WITH NO
SIGNIFICANT WEATHER AND/OR OBSTRUCTIONS TO VISIBILITY.

OHZ001>008-015>018-024>027-034-035-043-044-262300-
   NORTHWEST OHIO

CITY           SKY/WX    TMP DP  RH WIND       PRES   REMARKS
DEFIANCE       RAIN      72  67  84 S17G23    29.92R
FINDLAY        TSTM      69  65  86 SW23G37   29.99R FOG
TOLEDO EXPRESS CLOUDY    83  61  47 S9        29.86F
TOLEDO EXEC    CLOUDY    87  60  40 S24G30    29.88F
LIMA           HVY RAIN  67  67 100 SW16G28   29.99S FOG
$$

OHZ009>014-019>023-028>033-038-089-262300-
   NORTHEAST OHIO

CITY           SKY/WX    TMP DP  RH WIND       PRES   REMARKS
CLE-HOPKINS    MOSUNNY   85  64  49 S17G25    29.98F
CLE-LAKEFRONT  MOSUNNY   85  63  47 S18       29.95F
CUY CO. ARPT   NOT AVBL
LORAIN-ELYRIA  MOSUNNY   85  64  49 S18G25    29.97F
ASHTABULA      MOSUNNY   82  64  54 S10       30.02F
AKRON-CANTON   PTSUNNY   82  64  54 S15       30.03F
WOOSTER        NOT AVBL
MANSFIELD      PTSUNNY   74  69  85 S13       30.01R
YOUNGSTOWN     PTSUNNY   80  63  55 S13G21    30.05F
$$

OHZ042-051>053-060>062-070>072-077>081-262300-
  SOUTHWEST OHIO

CITY           SKY/WX    TMP DP  RH WIND       PRES   REMARKS
CINC-COVINGTON LGT RAIN  73  68  84 SW10      30.01S
CINC-LUNKEN    CLOUDY    71  32  23 VRB3      30.01F
HAMILTON       CLOUDY    72  69  90 VRB6      30.01F
DAYTON         NOT AVBL
WRIGHT-PAT AFB TSTM      68  66  94 S15       30.01R
DAYTON GENERAL LGT RAIN  68  66  93 SW10      30.01F
WILMINGTON     PTSUNNY   79  64  60 W22G33    30.04R
$$

OHZ036-037-039>041-045>050-054>059-063>069-073>076-082>088-262300-
  CENTRAL AND SOUTHEAST OHIO

CITY           SKY/WX    TMP DP  RH WIND       PRES   REMARKS
COLUMBUS       LGT RAIN  77  69  76 S7        30.02R
OSU AIRPORT    CLOUDY    79  66  64 S17       30.01R
BOLTON FIELD   NOT AVBL
RICKENBACK AFB NOT AVBL
NEWARK         PTSUNNY   77  68  73 S14G20    30.03F
MARION         HVY RAIN  77  65  66 SW29G38   30.01R
LANCASTER      TSTM      76  67  73 S18G28    30.05R
ZANESVILLE     HVY RAIN  74  67  78 SW7       30.05S VSB 3/4
NEW PHILLY     LGT RAIN  83  65  54 S12G21    30.04F
$$


USA.gov is the U.S. government's official web portal to all federal, state and local government web resources and services.